SCP
0 0 0 0 0 0 0 0 0 0 0 0 0 0 0 0 0 0 0 0 0 0
0 0 0 0 0 0 0 0 0 0 0 0 0 0 0 0 0 0 0 0 0 0
0 0 0 0 0 0 0 0 0 0 0 0 0 0 0 0 0 0 0 0 0 0
0 0 0 0 0 0 0 0 0 0 0 0 0 0 0 0 0 0 0 0 0 0
0 0 0 0 0 0 0 0 0 0 0 0 0 0 0 0 0 0 0 0 0 0
0 0 0 0 0 0 0 0 0 0 0 0 0 0 0 0 0 0 0 0 0 0
0 0 0 0 0 0 0 0 0 0 0 0 0 0 0 0 0 0 0 0 0 0
0 0 0 0 0 0 0 0 0 0 0 0 0 0 0 0 0 0 0 0 0 0
0 0 0 0 0 0 0 0 0 0 0 0 0 0 0 0 0 0 0 0 0 0
0 0 0 0 0 0 0 0 0 0 0 0 0 0 0 0 0 0 0 0 0 0
0 0 0 0 0 0 0 0 0 0 0 0 0 0 0 0 0 0 0 0 0 0
0 0 0 0 0 0 0 0 0 0 0 0 0 0 0 0 0 0 0 0 0 0
0 0 0 0 0 0 0 0 0 0 0 0 0 0 0 0 0 0 0 0 0 0
0 0 0 0 0 0 0 0 0 0 0 0 0 0 0 0 0 0 0 0 0 0
Wind_Speed_500mb
35 28 19 23 21 20 29 31 48 37 35 37 38 38 42 48 41 40 34 37 37 37
24 29 23 22 19 21 27 27 41 38 42 44 35 35 33 34 29 35 35 35 35 31
17 12 13 12 12 12 23 27 32 41 41 39 31 28 27 24 29 32 30 27 27 22
14 11 10 15 20 16 13 14 18 20 22 23 24 21 18 23 24 23 21 15 11 8
6 7 8 12 16 18 16 18 19 18 17 17 13 12 14 15 14 10 8 10 11 11
16 13 10 14 18 19 23 19 20 18 17 15 11 7 9 11 12 12 12 10 7 6
22 26 30 28 15 11 8 9 11 11 12 12 12 13 17 15 14 13 8 7 5 6
7 7 9 9 9 8 13 14 14 13 12 12 14 17 14 13 11 9 7 9 7 6
14 14 13 13 11 12 12 13 16 16 17 17 16 13 15 12 12 11 11 9 6 2
18 17 16 17 16 13 12 14 17 17 19 19 19 20 16 13 11 10 8 5 2 1
19 18 16 16 16 17 16 16 16 18 18 17 17 16 14 12 9 5 3 1 2 4
17 17 17 15 15 17 17 18 19 20 18 16 16 15 11 8 4 1 1 2 4 7
11 13 14 16 16 15 16 17 18 18 18 15 11 8 5 3 1 3 4 7 10 14
10 10 11 11 13 15 16 17 16 16 15 12 9 6 3 3 3 6 9 13 16 18
Wind_Direction_500mb
208 208 225 244 245 234 231 228 242 236 251 262 270 268 262 262 268 259 264 270 269 273
222 227 247 258 262 254 261 250 230 238 245 257 260 260 247 247 252 264 266 271 269 266
176 191 221 222 229 201 205 218 234 236 233 238 228 240 240 246 269 270 267 269 267 267
162 223 245 260 243 245 255 244 234 232 233 228 229 235 266 267 270 265 268 258 230 244
164 221 247 230 252 251 248 245 245 238 220 215 233 266 274 256 232 222 221 262 242 226
349 333 306 301 276 244 233 236 240 240 239 233 231 225 198 202 234 218 193 186 186 204
246 247 245 243 239 243 224 220 221 215 206 219 241 226 211 182 174 158 166 161 180 173
212 180 170 164 149 172 191 200 204 203 193 185 173 157 143 149 157 152 159 154 165 162
137 136 139 139 148 169 174 161 152 152 156 159 155 148 143 150 137 151 153 147 157 135
138 144 155 158 160 153 163 162 160 161 158 159 155 148 146 144 150 151 147 146 143 2
150 152 159 161 160 162 158 154 152 150 149 151 153 149 150 153 148 145 140 199 353 345
152 157 158 154 154 153 150 155 158 158 156 155 158 153 147 141 147 172 278 320 318 329
168 169 169 165 167 167 165 172 166 167 161 163 166 164 146 144 217 299 319 327 329 334
180 186 191 192 188 188 187 183 175 171 170 178 182 186 194 255 281 305 323 328 329 329
Wind_Speed_850mb
35 28 19 23 21 20 29 31 48 37 35 37 38 38 42 48 41 40 34 37 37 37
24 29 23 22 19 21 27 27 41 38 42 44 35 35 33 34 29 35 35 35 35 31
17 12 13 12 12 12 23 27 32 41 41 39 31 28 27 24 29 32 30 27 27 22
14 11 10 15 20 16 13 14 18 20 22 23 24 21 18 23 24 23 21 15 11 8
6 7 8 12 16 18 16 18 19 18 17 17 13 12 14 15 14 10 8 10 11 11
16 13 10 14 18 19 23 19 20 18 17 15 11 7 9 11 12 12 12 10 7 6
22 26 30 28 15 11 8 9 11 11 12 12 12 13 17 15 14 13 8 7 5 6
7 7 9 9 9 8 13 14 14 13 12 12 14 17 14 13 11 9 7 9 7 6
14 14 13 13 11 12 12 13 16 16 17 17 16 13 15 12 12 11 11 9 6 2
18 17 16 17 16 13 12 14 17 17 19 19 19 20 16 13 11 10 8 5 2 1
19 18 16 16 16 17 16 16 16 18 18 17 17 16 14 12 9 5 3 1 2 4
17 17 17 15 15 17 17 18 19 20 18 16 16 15 11 8 4 1 1 2 4 7
11 13 14 16 16 15 16 17 18 18 18 15 11 8 5 3 1 3 4 7 10 14
10 10 11 11 13 15 16 17 16 16 15 12 9 6 3 3 3 6 9 13 16 18
Wind_Direction_850mb
208 208 225 244 245 234 231 228 242 236 251 262 270 268 262 262 268 259 264 270 269 273
222 227 247 258 262 254 261 250 230 238 245 257 260 260 247 247 252 264 266 271 269 266
176 191 221 222 229 201 205 218 234 236 233 238 228 240 240 246 269 270 267 269 267 267
162 223 245 260 243 245 255 244 234 232 233 228 229 235 266 267 270 265 268 258 230 244
164 221 247 230 252 251 248 245 245 238 220 215 233 266 274 256 232 222 221 262 242 226
349 333 306 301 276 244 233 236 240 240 239 233 231 225 198 202 234 218 193 186 186 204
246 247 245 243 239 243 224 220 221 215 206 219 241 226 211 182 174 158 166 161 180 173
212 180 170 164 149 172 191 200 204 203 193 185 173 157 143 149 157 152 159 154 165 162
137 136 139 139 148 169 174 161 152 152 156 159 155 148 143 150 137 151 153 147 157 135
138 144 155 158 160 153 163 162 160 161 158 159 155 148 146 144 150 151 147 146 143 2
150 152 159 161 160 162 158 154 152 150 149 151 153 149 150 153 148 145 140 199 353 345
152 157 158 154 154 153 150 155 158 158 156 155 158 153 147 141 147 172 278 320 318 329
168 169 169 165 167 167 165 172 166 167 161 163 166 164 146 144 217 299 319 327 329 334
180 186 191 192 188 188 187 183 175 171 170 178 182 186 194 255 281 305 323 328 329 329